CW8081 Thessaloniki GR current weather conditions

sailwx.info

Wind from 028

Air temperature 24.4° C
Dewpoint 13.0° C

Last reported at 2016-May-27 19:41 UTC.
Time now 2016-May-27 20:04 UTC

Location: N 40°34' E 022°58'.
View on Google Maps.

See reports from other nearby stations

  
Tides and Currents Weather Stations Pressure Air Temp Water Temp Dewpoint Dewpoint Depression Visibility Wind Speed Wind Dir Waves Ship Positions
date/time (UTC)wind fromknots sea level pressurealtimeterstation pressurevisibilityair tempwater tempwave heightnotes
2016-May-27 19:41 028 24.4
2016-May-27 19:31 028 2 gusting 5 25.0
2016-May-27 19:11 030 3 gusting 5 26.1
2016-May-27 19:01 028 3 gusting 5 26.1
2016-May-27 18:31 343 4 gusting 6 27.2
2016-May-27 18:11 015 5 gusting 6 27.8
2016-May-27 18:01 033 4 gusting 6 27.8
2016-May-27 17:41 329 5 gusting 8 28.3
2016-May-27 17:31 319 4 gusting 11 28.3
2016-May-27 17:01 343 5 gusting 15 28.9
2016-May-27 16:11 335 4 gusting 10 29.4
2016-May-27 16:01 287 5 gusting 10 29.4
2016-May-27 15:41 338 6 gusting 11 30.0
2016-May-27 15:31 336 3 gusting 12 30.0
2016-May-27 15:11 290 5 gusting 13 30.0
2016-May-27 15:01 310 7 gusting 17 30.0
2016-May-27 14:41 329 3 gusting 13 30.0
2016-May-27 14:11 330 6 gusting 10 30.0
2016-May-27 14:01 298 6 gusting 13 29.4
2016-May-27 13:41 349 8 gusting 13 30.0
2016-May-27 13:31 320 7 gusting 12 29.4
2016-May-27 13:11 309 6 gusting 13 29.4
2016-May-27 13:01 316 6 gusting 15 30.0
2016-May-27 12:41 347 5 gusting 17 28.9
2016-May-27 12:31 345 6 gusting 12 29.4
2016-May-27 12:11 28.9
2016-May-27 12:01 307 6 gusting 15 28.9
2016-May-27 11:41 343 6 gusting 17 28.9
2016-May-27 11:31 328 5 gusting 13 28.3
2016-May-27 11:11 310 6 gusting 15 28.3
2016-May-27 11:01 337 6 gusting 12 28.3
2016-May-27 10:01 331 5 gusting 17 27.2
2016-May-27 09:41 317 7 gusting 15 27.2
2016-May-27 09:31 316 5 gusting 15 26.7
2016-May-27 09:11 26.7
2016-May-27 08:31 322 7 gusting 19 25.6
2016-May-27 08:11 25.6
2016-May-27 08:01 335 10 gusting 19 25.6
2016-May-27 07:31 327 10 gusting 19 25.0
2016-May-27 07:11 344 12 gusting 19 24.4
2016-May-27 07:01 005 7 gusting 17 23.9
2016-May-27 06:31 355 5 gusting 17 23.3
2016-May-27 06:11 323 8 gusting 13 22.8
2016-May-27 06:01 344 8 gusting 15 22.8
2016-May-27 05:31 010 6 gusting 10 22.2
2016-May-27 05:11 355 1 gusting 7 22.2
2016-May-27 05:01 321 3 gusting 7 21.7
2016-May-27 04:41 21.7
2016-May-27 04:31 334 0 gusting 10 21.1
2016-May-27 04:11 350 2 gusting 8 20.6
2016-May-27 03:41 017 5 gusting 12 20.6
2016-May-27 03:31 004 6 gusting 12 20.6
2016-May-27 03:11 20.6
2016-May-27 03:01 011 6 gusting 12 20.6
2016-May-27 02:41 008 6 gusting 12 20.6
2016-May-27 02:31 347 6 gusting 11 20.0
2016-May-27 02:11 347 2 gusting 8 19.4
2016-May-27 02:01 023 1 gusting 4 19.4
2016-May-27 01:41 026 4 gusting 8 18.9
2016-May-27 01:31 032 18.9
2016-May-27 01:11 031 19.4
2016-May-27 00:41 031 20.6
2016-May-27 00:31 030 0 gusting 6 20.6
2016-May-27 00:11 321 1 gusting 7 21.1
2016-May-26 23:31 355 6 gusting 11 21.1
2016-May-26 23:11 331 6 gusting 11 20.6
2016-May-26 22:31 350 2 gusting 5 20.0
2016-May-26 22:11 005 20.6
2016-May-26 22:01 005 20.6
2016-May-26 21:31 355 1 gusting 5 21.7
2016-May-26 20:41 019 1 gusting 5 22.8
2016-May-26 20:31 022 5 gusting 13 22.8
2016-May-26 20:11 355 5 gusting 10 22.8
2016-May-26 20:01 022 7 gusting 11 23.3
2016-May-26 19:41 027 4 gusting 10 23.3
2016-May-26 19:31 025 4 gusting 12 23.9
2016-May-26 19:11 331 9 gusting 17 23.9
2016-May-26 19:01 005 7 gusting 17 23.9
2016-May-26 18:31 351 6 gusting 15 24.4
2016-May-26 18:11 005 7 gusting 15 24.4
2016-May-26 17:11 334 6 gusting 17 25.0
2016-May-26 16:31 329 9 gusting 22 25.6
2016-May-26 16:11 331 8 gusting 19 25.0
2016-May-26 15:31 355 12 gusting 27 26.7
2016-May-26 15:11 328 9 gusting 17 27.2
2016-May-26 14:41 311 10 gusting 19 27.2
2016-May-26 14:01 270 7 gusting 22 27.2
2016-May-26 13:41 341 8 gusting 21 26.7
2016-May-26 13:31 321 7 gusting 19 26.1
2016-May-26 13:01 289 8 gusting 19 26.7
2016-May-26 12:31 336 10 gusting 19 27.8
2016-May-26 12:11 339 5 gusting 17 27.8
2016-May-26 11:41 327 8 gusting 15 27.2
2016-May-26 11:31 283 4 gusting 17 27.2
2016-May-26 11:11 005 6 gusting 22 26.7
2016-May-26 11:01 325 11 gusting 17 26.7
2016-May-26 10:41 325 4 gusting 13 26.1
2016-May-26 10:31 340 7 gusting 17 26.1
2016-May-26 10:11 339 11 gusting 17 26.1
2016-May-26 10:01 326 5 gusting 13 25.6
2016-May-26 09:31 331 6 gusting 19 25.0
2016-May-26 09:11 336 8 gusting 19 25.0
2016-May-26 08:41 325 11 gusting 18 24.4
2016-May-26 08:31 334 5 gusting 19 24.4
2016-May-26 08:11 304 10 gusting 18 24.4
2016-May-26 08:01 290 10 gusting 20 23.9
2016-May-26 07:41 315 8 gusting 22 23.3
2016-May-26 07:31 341 13 gusting 22 23.3
2016-May-26 07:11 336 9 gusting 20 22.8
2016-May-26 06:41 300 8 gusting 18 22.2
2016-May-26 06:31 330 7 gusting 17 22.2
2016-May-26 06:11 337 8 gusting 17 21.7
2016-May-26 05:41 334 10 gusting 17 21.1
2016-May-26 05:31 317 6 gusting 17 21.1
2016-May-26 05:11 20.6
2016-May-26 05:01 328 6 gusting 18 20.6
2016-May-26 04:41 026 2 gusting 10 20.0
2016-May-26 04:01 355 7 gusting 18 19.4
2016-May-26 03:41 353 6 gusting 11 19.4
2016-May-26 03:31 036 8 gusting 15 19.4
2016-May-26 03:11 340 6 gusting 20 19.4
2016-May-26 03:01 347 8 gusting 20 19.4
2016-May-26 02:41 001 9 gusting 13 19.4
2016-May-26 02:11 009 6 gusting 12 19.4
2016-May-26 02:01 333 9 gusting 17 19.4
2016-May-26 01:41 338 7 gusting 13 19.4
2016-May-26 01:31 345 4 gusting 17 19.4
2016-May-26 00:31 343 6 gusting 19 20.0
2016-May-25 23:41 355 12 gusting 20 20.6
2016-May-25 23:01 018 13 gusting 21 21.1
2016-May-25 22:31 21.1
2016-May-25 22:11 341 12 gusting 19 21.7
2016-May-25 22:01 325 6 gusting 13 21.7
2016-May-25 21:41 328 7 gusting 12 22.2
2016-May-25 21:31 340 7 gusting 13 22.2
2016-May-25 21:11 329 6 gusting 18 21.7
2016-May-25 21:01 269 2 gusting 5 21.7
2016-May-25 20:31 278 5 gusting 8 22.2
2016-May-25 20:11 323 2 gusting 8 22.8
2016-May-25 20:01 350 5 gusting 10 22.8